Tracking 19245 objects as of 18-Aug-2018
HD Live streaming from Space Station
objects crossing your sky now

SL-12 R/B(2)

Track SL-12 R/B(2) now!


NORAD ID: 26486
Int'l Code: 2000-051D
Perigee: 3,118.9 km
Apogee: 49,853.6 km
Inclination: 62.6 °
Period: 987.9 minutes
Semi major axis: 32857 km
RCS: 27.9141 m2 (large)
Launch date: September 5, 2000
Source: Commonwealth of Independent States (former USSR) (CIS)
Launch site: TYURATAM MISSILE AND SPACE COMPLEX (TTMTR)

Note: This is a ROCKET BODY
aabbcc
Your satellite tracking list
Your tracking list is empty




NASA's NSSDC Master Catalog

Two Line Element Set (TLE):
1 26486U 00051D   18227.23309936 -.00000011 +00000-0 +00000-0 0  9990
2 26486 062.6261 105.3130 7111774 265.4168 349.3095 01.45765818095501
Source of the keplerian elements: AFSPC